Dewpoint
50 51 52 52 52 52 52 50 49 49 50 47 45 42 39 34 28 37 38 41 43 31 25 27 27 20 23 29 25 27 25 26 27 25 26 22 25 23 25 25 17 18 21 20 17 19 15 16 12 18 22 21 25 28 27 28 26 21 16 19 15 26 12 8 15 18 15 12 15 13 14 15 10 9 12 11 7 10 9 5 2 3 2 1 2 1 7
50 51 52 52 52 52 51 50 46 49 48 43 46 41 35 32 31 29 41 43 40 33 23 23 19 20 24 26 23 26 27 25 22 24 25 23 15 22 22 22 24 19 24 18 15 19 8 17 16 15 17 21 28 27 27 26 22 21 19 16 21 8 13 7 6 10 13 12 10 12 12 11 9 9 11 12 10 9 5 6 2 2 5 7 5 2 7
50 51 52 52 52 51 52 50 49 49 49 46 43 38 37 31 32 33 34 39 33 18 28 25 21 22 22 21 18 21 21 26 26 25 24 24 19 18 20 23 23 23 24 22 20 21 16 13 15 13 15 20 26 26 27 25 24 27 28 31 25 12 13 8 3 2 4 6 7 9 9 11 8 12 10 11 10 8 5 4 2 2 6 6 1 5 8
50 51 52 52 52 52 51 51 49 49 49 49 45 40 33 28 14 29 29 35 32 28 29 27 24 22 19 11 18 22 19 23 28 28 27 25 23 22 24 21 23 22 22 19 19 20 21 11 12 10 12 17 25 26 25 26 26 29 29 24 21 13 16 13 12 10 9 13 14 18 19 11 8 8 8 8 9 9 7 6 3 6 5 7 7 9 10
51 51 51 51 52 52 52 51 50 49 49 46 45 41 25 29 20 24 19 28 27 24 27 23 24 24 23 14 16 12 19 22 22 29 21 25 25 22 22 21 17 18 22 23 21 23 20 18 12 10 11 13 20 26 26 25 27 28 28 27 14 12 10 14 15 14 14 14 14 15 17 12 11 10 11 10 11 10 9 9 8 11 3 8 11 10 11
51 51 51 52 52 52 51 51 50 49 48 47 46 35 32 26 26 27 24 21 23 22 16 27 23 24 22 18 20 17 19 21 16 22 24 26 24 20 22 21 22 21 18 19 13 20 21 16 11 13 11 14 16 19 27 25 28 26 22 19 15 12 9 11 11 10 15 15 14 14 13 11 11 11 11 10 12 10 9 10 12 9 7 9 10 10 10
51 51 51 51 52 51 51 52 51 49 48 47 42 37 32 30 27 24 27 30 23 25 23 29 26 21 19 18 21 19 18 15 23 19 18 22 22 23 15 21 21 22 23 18 14 21 10 11 16 11 12 13 13 11 18 25 25 23 16 15 14 11 9 11 11 13 13 13 13 13 13 12 12 13 13 12 13 12 12 11 11 11 11 10 10 11 11
51 51 52 52 52 52 51 51 50 49 47 45 40 37 32 27 22 23 25 23 18 17 19 26 21 14 17 6 14 20 21 16 21 22 18 12 19 25 18 22 23 24 22 21 14 17 16 12 10 13 12 9 14 15 17 19 23 22 14 13 16 9 11 14 9 8 13 13 15 16 16 14 13 13 13 12 13 13 13 13 12 13 12 12 12 12 12
51 52 52 52 52 51 51 51 51 50 50 35 40 35 33 33 31 29 25 17 16 18 19 21 24 16 15 9 19 20 22 20 23 21 23 15 20 22 18 22 25 24 22 22 21 24 23 19 17 22 14 8 20 15 12 22 18 19 16 14 16 8 10 10 8 7 10 12 11 12 12 13 13 12 12 12 11 10 12 12 14 12 13 13 10 10 13
52 52 52 52 51 51 51 51 50 50 49 44 37 32 32 31 32 35 33 20 22 17 15 16 14 11 21 18 20 16 19 24 23 11 23 27 28 24 22 25 24 22 21 20 23 26 26 24 23 24 22 18 18 19 19 21 21 19 16 16 11 9 9 8 8 6 9 11 13 10 11 13 12 14 14 14 13 11 11 12 14 14 13 9 10 12 13
51 51 51 51 50 50 50 50 51 50 42 38 37 36 32 32 25 23 31 22 20 19 16 18 12 19 22 28 25 23 24 26 20 12 12 25 28 27 27 24 19 22 20 24 27 27 25 23 22 23 20 19 18 20 21 23 22 21 20 13 14 10 9 8 8 5 9 11 11 12 11 7 11 15 20 16 12 12 11 10 10 11 12 11 12 12 12
51 50 50 50 50 50 50 51 51 51 45 44 42 39 34 35 37 33 24 7 17 17 15 18 19 24 26 25 24 21 22 24 24 27 20 26 27 26 24 21 16 11 24 26 25 26 28 27 25 25 25 25 25 24 22 22 20 26 20 16 12 11 8 8 6 6 8 10 12 9 2 9 18 12 15 16 13 13 12 12 12 11 12 12 13 13 13
50 50 50 50 50 50 50 50 51 51 50 43 43 39 38 36 35 29 28 18 17 15 8 12 19 23 24 25 23 23 25 25 26 27 26 24 23 27 29 27 21 25 26 25 25 26 24 21 23 24 24 24 25 24 23 23 22 21 20 18 15 11 9 9 10 6 9 7 7 2 8 15 15 11 10 12 7 7 7 9 10 10 10 10 11 12 13
50 50 50 50 50 50 50 50 51 51 50 46 42 36 33 35 25 25 28 19 21 19 19 16 15 16 21 25 23 24 20 18 20 25 23 29 26 28 29 29 29 28 28 26 25 20 16 15 11 13 14 16 16 14 21 23 22 21 20 20 19 15 9 9 9 8 5 6 5 10 11 10 13 9 8 7 8 7 8 8 12 12 11 11 11 12 13
50 50 49 49 50 50 50 50 51 51 49 46 38 36 35 33 37 37 35 15 12 19 16 7 19 18 24 25 23 19 16 18 16 18 25 28 27 29 28 28 28 27 25 23 18 16 14 12 7 10 11 10 7 9 23 22 20 18 17 18 19 16 11 12 8 7 9 7 7 8 6 3 13 15 12 14 10 11 13 10 12 12 13 13 13 13 13
49 49 49 49 50 50 50 51 51 49 47 46 38 35 33 34 34 39 37 29 18 5 16 25 26 24 24 24 23 19 18 15 16 21 22 25 27 26 28 27 27 26 24 22 17 14 15 8 6 6 7 8 11 6 6 16 14 14 15 19 19 17 13 10 9 8 8 5 3 2 3 9 15 15 11 14 12 12 13 9 11 15 14 14 13 13 14
49 49 49 50 50 50 50 50 49 47 45 45 37 35 32 35 37 40 36 30 16 10 25 27 29 28 22 19 20 17 20 16 21 13 14 19 26 27 25 26 26 26 25 17 14 14 12 10 10 9 12 13 6 4 10 12 10 12 13 15 15 13 10 8 8 5 7 5 5 6 6 10 13 13 12 11 15 13 12 10 10 14 14 14 14 14 13
49 49 49 49 49 48 47 47 47 45 44 47 40 35 34 35 33 37 36 27 17 23 29 28 31 18 18 23 23 24 20 17 19 23 23 26 25 25 25 26 23 26 28 17 14 12 11 11 10 9 11 17 12 7 6 8 5 7 10 13 9 9 9 10 11 7 10 12 8 5 11 15 18 14 10 12 14 11 5 8 15 17 14 14 14 14 13
48 48 48 49 48 47 46 46 46 45 45 43 37 38 34 35 36 37 36 27 18 16 30 28 29 29 29 26 31 29 25 19 21 20 19 18 21 25 25 25 24 14 23 15 14 12 11 10 13 9 9 12 8 6 9 5 8 8 10 9 10 8 5 9 6 8 10 9 9 10 11 15 14 10 11 13 11 7 11 16 18 13 12 13 14 13 13
48 48 47 47 47 46 46 47 46 46 44 46 41 33 32 35 36 34 35 26 24 26 27 29 29 29 31 33 27 19 21 18 23 24 19 14 24 25 21 16 21 22 18 16 12 16 11 12 12 9 9 10 14 12 7 8 11 7 8 9 9 13 9 9 7 10 10 8 5 8 7 12 11 11 10 12 9 12 14 14 15 15 14 14 13 13 13
47 47 48 47 47 48 47 46 45 44 46 43 42 34 29 32 34 35 36 29 28 26 25 29 30 30 32 29 29 29 31 22 23 20 23 24 27 20 8 11 23 16 15 14 11 12 10 11 10 7 14 14 14 7 9 7 11 16 9 11 11 15 7 8 11 14 8 7 5 8 16 19 13 11 11 12 12 12 13 13 12 14 15 14 14 14 14
48 47 47 47 48 47 45 46 46 45 47 46 43 28 25 28 31 31 31 31 30 27 24 28 29 29 30 31 31 31 30 31 31 29 24 22 25 24 21 21 22 18 17 18 14 11 14 13 12 9 8 13 12 11 10 8 10 14 13 10 10 15 15 16 10 14 11 11 15 15 19 15 13 12 13 13 14 15 15 15 15 14 14 15 14 14 15
47 48 47 46 45 44 46 47 45 43 46 46 43 33 25 28 32 35 32 26 27 29 31 30 31 32 33 32 33 32 31 32 32 32 29 26 20 22 17 19 18 25 23 19 20 19 19 15 13 15 12 15 15 12 10 13 10 11 10 10 18 18 17 14 10 15 15 16 16 16 14 13 14 14 14 14 14 15 15 15 14 15 15 16 15 15 15
45 46 46 47 47 47 47 46 46 45 44 43 43 31 31 33 32 33 31 29 27 25 27 29 31 26 26 29 31 32 32 32 32 32 32 30 22 20 22 25 26 22 23 25 25 19 18 17 17 13 9 16 9 10 8 10 12 16 12 16 13 15 11 11 11 14 10 10 12 11 11 12 13 12 12 15 16 16 16 15 16 16 16 16 16 15 15
45 45 44 44 45 46 46 46 46 44 43 42 38 37 35 33 34 33 27 20 19 26 16 21 25 29 31 31 30 31 32 32 31 32 31 30 28 23 21 26 27 24 21 23 19 20 17 11 13 12 7 18 12 12 16 9 16 13 10 17 14 17 11 9 11 11 10 9 11 12 12 13 13 14 14 14 15 15 16 16 17 17 17 17 16 16 16
44 45 44 44 44 44 44 44 44 45 45 45 42 36 36 33 34 34 35 33 27 26 21 20 24 30 30 30 30 32 33 33 32 32 32 31 32 29 28 29 27 28 25 22 20 18 18 16 16 16 13 18 14 11 11 16 15 13 11 16 13 12 11 13 11 9 9 11 12 13 14 14 15 16 15 16 16 16 16 16 16 16 15 15 16 16 15
44 44 44 44 44 44 44 44 43 43 43 42 36 35 34 33 35 35 37 35 23 20 26 19 20 27 28 29 32 33 32 32 32 32 32 31 32 32 28 26 27 24 21 17 20 18 17 16 15 16 15 19 12 11 13 15 14 13 12 16 13 12 13 12 12 14 14 13 12 13 14 13 13 14 15 15 16 16 16 16 15 15 15 15 14 14 14
45 45 44 44 43 43 43 43 42 42 42 40 37 35 34 32 31 33 34 35 27 13 21 19 17 22 26 29 32 31 32 31 30 31 31 31 31 29 28 27 26 22 20 18 16 15 16 14 17 18 15 13 12 16 14 13 11 10 13 13 14 11 12 12 10 10 13 13 14 15 15 14 15 15 16 17 17 17 16 16 15 15 15 15 15 14 14
44 45 46 44 42 41 43 45 45 43 43 42 37 38 36 35 35 37 37 36 31 27 27 24 25 23 19 28 29 29 29 30 30 29 29 29 30 28 28 27 26 23 20 19 19 18 17 18 21 15 15 18 12 13 12 11 11 11 14 15 15 14 15 14 13 14 14 15 15 16 16 15 16 17 18 18 18 17 16 16 16 16 16 16 16 16 15
44 44 45 45 44 42 42 43 43 42 42 37 36 30 27 26 35 34 36 35 29 27 25 21 18 17 27 30 29 28 29 29 29 28 27 25 26 26 27 26 24 26 20 19 19 17 21 18 17 18 18 20 12 13 11 12 11 13 17 17 16 17 17 17 17 15 14 16 17 18 18 18 18 18 18 19 19 19 18 17 17 18 18 18 18 17 17
44 44 44 45 45 46 45 42 44 43 39 36 31 24 24 16 24 37 38 35 34 31 26 28 20 20 20 25 27 27 27 27 26 25 26 26 26 25 24 23 22 24 19 20 16 20 19 14 17 18 19 23 20 14 12 12 11 13 16 17 17 17 17 17 19 20 20 19 20 19 19 18 20 18 18 19 19 18 18 19 20 22 21 21 20 19 18
44 44 44 44 44 45 45 45 43 44 35 36 29 27 22 20 31 37 38 38 34 30 26 22 16 17 18 24 25 27 27 27 27 27 24 26 21 24 22 24 21 24 29 20 21 17 16 21 17 16 15 22 22 14 13 11 11 15 16 15 17 18 19 19 19 19 19 19 18 19 18 18 19 18 18 19 19 20 20 20 21 21 22 23 22 22 21
46 45 45 44 44 43 44 43 39 34 25 35 42 43 42 41 40 38 39 35 28 22 24 26 10 11 16 17 21 25 27 25 22 19 19 24 21 22 19 24 23 22 31 23 16 14 18 19 18 16 19 20 15 16 11 12 15 16 16 18 18 18 19 19 19 18 17 19 18 17 17 18 19 20 21 21 21 22 22 23 23 23 24 24 24 23 23
46 46 45 45 45 45 44 42 41 40 41 35 24 21 30 41 36 39 37 30 21 22 26 20 11 13 14 17 14 20 24 17 17 19 16 22 19 17 16 20 20 17 21 19 21 17 18 19 14 15 16 14 17 12 10 15 17 18 18 18 18 18 18 17 16 17 19 20 20 20 20 20 21 22 22 23 23 23 24 24 25 25 25 24 24 24 24
46 46 46 45 44 44 45 41 36 36 28 33 31 30 33 41 41 40 37 28 19 19 19 17 23 20 17 20 18 20 22 19 16 18 14 18 19 16 18 15 17 13 17 20 18 17 15 16 20 14 13 13 11 11 14 16 16 16 16 16 16 17 17 17 18 19 20 21 22 22 23 22 23 23 23 24 24 24 25 25 25 25 24 24 24 24 24
46 46 45 44 44 41 36 40 33 31 22 21 22 36 38 40 41 35 36 36 22 17 20 13 22 15 14 13 14 18 22 19 19 15 15 16 18 16 17 14 12 17 19 15 13 16 13 17 15 12 13 11 11 15 15 17 16 17 17 16 17 18 18 18 18 20 21 23 23 24 23 24 24 24 24 24 25 25 25 25 25 25 25 25 25 25 25
45 44 44 41 38 30 23 19 29 28 20 27 36 41 39 40 36 34 30 25 25 26 22 21 24 12 15 15 17 20 19 17 19 16 16 14 15 17 14 14 12 21 17 16 14 14 16 17 13 12 11 11 14 17 18 19 19 17 16 17 19 19 19 20 22 22 22 22 22 23 23 23 24 24 24 24 25 25 25 25 25 25 25 25 25 25 26
44 41 35 32 24 21 18 20 20 29 38 35 37 27 23 28 18 22 26 23 18 30 22 25 16 16 18 16 14 21 18 18 18 14 15 14 17 15 14 14 15 19 9 13 16 18 13 12 11 10 12 17 18 18 17 18 18 18 18 19 20 21 21 21 22 22 22 22 22 22 23 24 24 24 24 25 25 25 25 25 26 26 26 26 26 26 26
36 33 31 27 21 16 17 20 34 39 32 35 30 21 19 22 21 17 15 19 21 20 19 25 16 18 17 16 19 24 18 13 14 14 13 17 13 14 13 9 12 12 9 9 11 13 8 10 10 8 11 15 17 16 17 19 18 20 21 21 22 22 23 22 23 22 22 22 23 23 24 24 24 24 25 25 25 25 25 26 26 26 26 26 27 26 26
30 19 16 24 17 21 32 35 39 29 30 17 21 21 11 20 19 12 19 15 17 18 20 17 17 17 15 13 12 15 24 16 12 14 15 17 23 11 13 13 12 8 5 8 10 10 7 5 7 6 11 17 19 19 17 19 19 21 22 22 22 22 22 23 23 24 24 24 25 25 25 26 26 26 26 26 26 25 25 26 26 26 26 26 26 26 26
30 27 23 18 24 31 33 31 30 26 22 19 17 15 17 13 15 14 19 16 15 14 17 17 16 16 17 15 14 13 21 20 16 14 13 13 18 17 12 8 11 6 5 6 10 9 7 5 7 7 14 18 15 17 19 19 20 22 22 22 22 23 23 23 24 24 25 25 25 25 26 27 27 27 26 26 26 26 26 26 26 26 27 27 26 26 27
32 25 23 32 32 33 27 24 24 18 17 19 13 10 13 12 18 18 15 11 13 16 16 15 12 15 16 17 15 15 15 14 15 16 14 11 19 12 10 8 7 4 3 7 9 9 7 4 5 8 18 19 19 20 19 19 21 22 21 22 22 23 23 24 24 25 25 25 26 26 26 27 27 27 27 27 27 27 27 27 27 27 27 27 27 27 27
39 35 32 28 25 22 22 18 21 18 11 11 8 6 12 10 11 11 11 19 16 16 16 16 15 23 20 17 15 16 15 25 20 14 12 10 19 13 5 4 3 4 6 9 7 4 3 3 4 15 16 17 18 19 19 20 21 22 22 22 23 23 24 25 25 25 26 26 26 27 27 27 27 28 28 28 27 26 26 26 26 27 27 27 27 27 27
30 28 19 24 19 16 18 9 18 12 9 12 9 6 10 10 19 16 14 20 17 16 17 11 16 14 15 16 12 16 16 19 25 14 11 10 9 5 4 4 4 8 9 7 4 3 6 7 13 16 15 16 17 17 19 21 21 22 22 22 23 24 25 25 25 25 25 26 27 28 28 27 27 28 28 27 26 26 26 26 27 27 27 27 26 27 27
18 20 21 15 12 17 12 6 15 10 7 9 21 17 15 14 20 17 18 20 15 15 17 15 16 13 14 15 14 15 20 13 20 11 8 8 6 6 5 7 7 7 5 4 4 4 6 8 18 17 14 13 15 18 20 21 21 22 22 23 23 24 25 25 25 25 25 26 26 27 27 27 27 27 27 27 27 27 26 26 27 27 26 26 26 26 27
21 15 17 9 7 12 12 6 11 10 18 21 19 22 18 21 19 19 19 15 17 18 17 16 14 15 14 14 11 13 10 11 10 7 9 7 6 5 8 9 6 3 2 3 2 3 8 16 17 14 14 16 17 19 21 21 22 23 23 23 24 25 25 25 25 25 25 26 26 27 27 27 26 26 26 27 27 27 27 27 26 25 25 25 25 25 25
20 21 20 13 9 12 17 11 14 20 17 21 21 20 17 17 18 18 16 15 15 16 15 13 13 14 11 14 13 12 11 10 7 8 8 5 5 7 9 5 2 2 2 1 4 7 14 17 15 15 16 17 19 21 22 22 22 23 23 24 25 25 25 25 25 25 25 26 27 26 26 26 25 25 26 26 26 26 26 25 24 24 24 24 24 24 24
16 18 18 9 8 15 15 17 19 20 17 18 18 15 14 14 17 19 17 14 15 16 13 14 15 14 13 15 13 12 10 8 7 8 8 6 7 4 2 2 2 4 5 5 10 14 17 16 17 17 18 20 21 21 22 22 23 23 24 25 25 25 25 25 25 25 26 27 27 27 26 25 25 25 25 25 25 25 25 24 24 24 24 24 23 23 23
23 15 14 12 15 18 19 20 22 20 19 15 12 14 15 16 17 17 15 13 15 15 16 14 15 13 11 12 9 9 8 9 7 6 6 4 3 3 2 3 2 4 7 10 16 18 17 18 21 21 22 22 23 23 22 22 23 24 25 26 26 26 26 25 26 26 27 27 27 26 25 24 24 24 24 24 24 23 23 24 24 23 23 21 21 22 23
18 16 21 20 21 22 18 17 22 20 21 19 18 18 15 16 17 16 15 15 13 14 15 17 18 14 11 9 7 5 7 8 8 7 5 4 4 3 4 2 3 9 16 17 19 19 19 19 20 20 22 23 24 23 23 23 25 27 27 27 27 27 26 26 26 27 27 26 26 25 24 24 23 23 23 23 23 24 24 23 23 22 22 21 22 22 19
20 17 16 19 18 17 20 17 18 17 21 20 19 16 14 15 16 16 15 14 15 14 14 13 12 10 9 6 6 7 7 8 6 6 6 6 8 4 5 6 10 15 20 21 21 20 19 19 20 20 22 23 23 23 25 26 27 27 28 28 28 28 28 27 27 27 26 26 25 22 23 23 23 24 24 24 24 23 22 21 21 22 22 22 20 18 16
17 17 16 18 18 18 18 22 22 20 20 19 16 15 19 15 16 15 16 15 15 16 14 13 10 9 5 8 9 9 7 7 6 5 6 9 6 6 9 12 19 21 22 20 19 18 19 20 22 23 24 24 25 26 27 27 27 28 28 28 29 29 28 28 28 27 26 25 24 22 23 23 23 23 24 23 22 21 19 19 21 23 22 19 16 15 14